Starlink 1663

operational
NORAD ID: 46535 Int'l Des: 2020-070 Owner: SPXS Country: US Constellation: starlink
LEOCIRCULARSTARLINK_TYPE

About Starlink 1663

Description loading...

Live Position

Loading 3D Globe...

Upcoming Passes

Altitude History

Altitude vs Time

uPlot chart will show altitude changes over time

Two-Line Element Set

1 46535U 20070D 25303.62495143 .00104538 00000-0 30378-2 0 9993
2 46535 53.0537 38.3961 0001555 34.0516 326.0585 15.34650803279926
Epoch: Oct 30, 2025 • Age: 23 hours

Current Status

Altitude 480.4 km
Velocity 7.62 km/s
Sub-Earth Point -53.08°S, 58.32°E
Launch Date Oct 6, 2020
Age 5 years
Type internet

Technical Details

Classification Payload
Mass 260.00 kg
Dry Mass 248.00 kg
Total Mass 260.00 kg
Length 0.20 m
Diameter 2.80 m
Span 9.00 m
Shape Box + pan
Manufacturer SPXS
Bus Type Starlink
Phase Status In Orbit
Owner/State SPXS/US

Large Constellations

Loading constellations...